STARLINK-3266, 50195

Orbit data source: Space-Track

STARLINK-3266, 50195 is a payload satellite owned by SpaceX/Seattle (US) in LEO that was launched on Sat, 18 Dec 2021 UTC via an FALCON 9 launch vehicle from the Air Force Western Test Range (AFWTR). Payload-class satellites include a variety of spacecraft equipped with specific instruments for various scientific and technological missions. These include communications satellites like Starlink; space stations such as the ISS; scientific satellites like the Hubble; Earth observation satellites from companies like Planet Labs, Umbra, and HawkEye 360; GPS; miniature CubeSats for education and research; and military/defense satellites.

Loading next visibility...
Identifier
50195, 2021-125AR
Orbit
LEO
Country
Flag of USUS
Related business
Manufacturer
SpaceX/Seattle
Mission
Operational Commercial Communications
Bus & Motor
STARLINK, Unknown motor
Mass
290 kg wet, ~270 kg dry
Launch date (UTC)
2021-12-18 (5 years ago)
Launch vehicle
FALCON 9
Launch site
Air Force Western Test Range (AFWTR)
Object type
Payload
Rocket body
Debris
Shape & HBR
Box + 1 Pan, 10.1 m
Radar Cross Section
13.562 m², Large (>1 m²)

Expand to show TLE details & history
Last TLE update: 7 hours ago

TLE from 7 hours ago
0 STARLINK-3266
1 50195U 21125AR  26170.18711757  .00000833  00000-0  70420-4 0  9995
2 50195  53.1606 143.3747 0001358  86.5122 273.6025 15.08835105252058
Epoch: 2026-06-19T04:29Z
TLE epoch observation values (Epoch: 2026-06-19T04:29:26.958Z)
Latitude
0.00002°
Longitude
168.59269°
Altitude
540.591 km
Speed
7.593 km/s
True Right ascension
09h 33m 29s
True Declination
0° 00' 00"
Sunlit
Object was in daylight at epoch
Visualization orbit readout
Latitude
Unknown
Longitude
Unknown
Altitude
Unknown
Speed
Unknown
Apparent Right ascension
Unknown
Apparent Declination
Unknown
Sunlit
N/A
Visualization observer readout
Local Sidereal Time
22:13:05
Azimuth
Unknown
Elevation
Unknown
Doppler factor
Unknown
Orbital elements
Apogee altitude
540.952 km
Perigee altitude
539.073 km
Semi-major axis
6,918.149 km
Eccentricity
0.00014
Inclination
53.1606°
RAAN
143.3747°
Arg. of periapsis
86.5122°
True anomaly
273.58697°
Mean anomaly
273.6025°
Eccentric anomaly
273.59473°
Mean motion
3.77188 °/min
Orbital period
95.44 mins
BSTAR
0.00007042
Loading maneuver chart data...
Computing Atmospheric mass density...

Documentation

Showing up to 5 results
|